Regional Weather Roundup
Issued by NWS Bismarck, ND

Home | Current Version | Previous Version | Text Only | Print | Product List | Glossary On
Versions: 1 2 3 4 5 6 7 8 9 10 11 12 13 14 15 16 17 18 19 20 21 22 23 24 25 26 27 28 29 30 31 32 33 34 35 36 37 38 39 40 41 42 43 44 45 46 47 48 49 50
000
ASUS43 KBIS 030802
RWRBIS

NWR BROADCAST TEXT
NATIONAL WEATHER SERVICE BISMARCK ND
300 AM CDT MON AUG 03 2015

NOTE: "FAIR" INDICATES FEW OR NO CLOUDS BELOW 12,000 FEET WITH NO
SIGNIFICANT WEATHER AND/OR OBSTRUCTIONS TO VISIBILITY.


CITY           SKY/WX    TMP DP  RH WIND       PRES   REMARKS
WILLISTON      CLEAR     56  49  77 NE3       30.03F
MINOT          CLEAR     55  49  80 SW7       29.98S
MINOT AFB      NOT AVBL
BISMARCK       CLEAR     58  53  84 W6        29.99S
DICKINSON      CLEAR     52  47  83 CALM      30.02F
GARRISON         N/A     53  50  89 N6        30.00S
HETTINGER ARPT CLEAR     51  46  83 N3        30.05S
JAMESTOWN      CLEAR     55  50  83 NW6       29.95S
HAZEN          FAIR      48  46  93 SW3       30.02S
STANLEY        FAIR      54  52  94 NW7       30.04S
$$

CITY           SKY/WX    TMP DP  RH WIND       PRES   REMARKS
GRAND FORKS    CLEAR     51  47  86 W7        29.88R
GRAND FORKS AF NOT AVBL
DEVILS LAKE    CLEAR     55  46  71 NW8       29.92S
FARGO          CLEAR     54  48  80 W6        29.89S
CAVALIER       FAIR      52  48  87 W3        29.88S
GRAFTON        FAIR      55  52  88 W7        29.89R
GWINNER        FAIR      59  52  77 NW7       29.94S
LANGDON        FAIR      45  43  93 W6        29.92S
$$

CITY           SKY/WX    TMP DP  RH WIND       PRES   REMARKS
ABERDEEN       CLEAR     54  52  93 W3        29.95F
MOBRIDGE       CLEAR     58  55  90 N6        29.97S
BUFFALO          N/A     61  49  64 E8        29.98F
RAPID CITY     CLEAR     60  52  74 CALM      30.04S
GLASGOW        CLEAR     60  47  61 SE9       30.01S
SIDNEY         CLEAR     57  46  67 NW6       30.02F
WOLF POINT     CLEAR     58  48  69 E5        30.03F
GLENDIVE         N/A    N/A N/A N/A MISG        N/A
MILES CITY     CLEAR     63  48  58 N9        30.01F
BAKER          CLEAR     57  46  66 CALM      30.06S
$$

CITY           SKY/WX    TMP DP  RH WIND       PRES   REMARKS
BILLINGS       CLEAR     66  44  45 N8        30.00F
GREAT FALLS    CLEAR     68  45  43 SE10      29.95F
$$




USA.gov is the U.S. government's official web portal to all federal, state and local government web resources and services.